Home   Weather   Nottingham   Past weeks

Flag for United Kingdom Past Weather in Nottingham, England, United Kingdom — Yesterday and Last 2 Weeks

54 °F

Partly sunny.

Feels Like: 51 °F
Forecast: 43 / 53 °F
Wind: 9 mph from North

Location: East Midlands

Current Time: Oct 21, 2016 at 2:12:02 PM

Latest Report: Oct 21, 2016 at 1:20 PM

Visibility: N/A

Pressure: 30.15 "Hg

Humidity: 77%

Dew Point: 46 °F

Location of NottinghamLocation

Past Weather in Nottingham — Graph


Nottingham Temperature Yesterday

Maximum temperature yesterday: 55 °F (at 12:20 PM)
Minimum temperature yesterday: 45 °F (at 10:50 PM)
Average temperature yesterday: 50 °F

High & Low Weather Summary for the Past Weeks

High61 °F (Oct 16, 1:50 PM)100% (Oct 7, 8:20 AM)30.42 "Hg (Oct 7, 8:20 AM)
Low39 °F (Oct 10, 5:20 AM)55% (Oct 6, 12:20 PM)29.65 "Hg (Oct 15, 3:50 AM)
Average51 °F85%30.11 "Hg
* Reported Oct 6 12:20 PM — Oct 21 12:50 PM, Nottingham, Weather by CustomWeather, © 2016

Note: Actual official high and low records may vary slightly from our data, if they occured in-between our weather recording intervals... More about our weather records


Nottingham Weather History for the Previous 24 Hours

Scroll right to see more
Time TempWeatherWind HumidityBarometerVisibility
12:50 PM
Fri, Oct 21
52 °FBroken clouds.9 mph82%30.15 "HgN/A
12:20 PM52 °FPartly sunny.9 mph82%30.15 "HgN/A
11:50 AM52 °FScattered clouds.6 mph88%30.15 "HgN/A
11:20 AM50 °FPassing clouds.6 mph88%30.18 "Hg6 mi
10:50 AM48 °FClear.8 mph94%30.15 "Hg6 mi
10:20 AM48 °FClear.7 mph87%30.15 "Hg6 mi
9:50 AM46 °FClear.6 mph93%30.15 "Hg6 mi
9:20 AM45 °FClear.6 mph100%30.15 "Hg6 mi
8:50 AM45 °FSunny.3 mph93%30.15 "Hg10 mi
8:20 AM43 °FSunny.6 mph93%30.15 "Hg10 mi
7:50 AM45 °FSunny.6 mph93%30.15 "Hg10 mi
7:20 AM45 °FClear.6 mph93%30.15 "Hg10 mi
6:50 AM43 °FClear.7 mph100%30.15 "Hg10 mi
6:20 AM45 °FClear.6 mph93%30.15 "Hg10 mi
5:50 AM45 °FClear.8 mph93%30.15 "Hg10 mi
5:20 AM45 °FClear.8 mph93%30.15 "Hg10 mi
4:50 AM41 °FPassing clouds.7 mph100%30.15 "Hg6 mi
4:20 AM43 °FPassing clouds.6 mph93%30.15 "Hg6 mi
3:50 AM43 °FClear.7 mph100%30.15 "Hg10 mi
3:20 AM45 °FPassing clouds.7 mph93%30.18 "HgN/A
2:50 AM45 °FPassing clouds.6 mph100%30.18 "HgN/A
2:20 AM45 °FClear.7 mph93%30.18 "Hg10 mi
1:50 AM46 °FPassing clouds.7 mph93%30.18 "HgN/A
1:20 AM45 °FPassing clouds.8 mph100%30.18 "HgN/A
12:50 AM45 °FClear.7 mph93%30.18 "Hg10 mi
12:20 AM45 °FClear.6 mph100%30.18 "Hg10 mi
11:50 PM
Thu, Oct 20
45 °FClear.6 mph93%30.21 "Hg10 mi
11:20 PM45 °FClear.8 mph93%30.21 "Hg10 mi
10:50 PM45 °FClear.6 mph93%30.21 "Hg10 mi
10:20 PM46 °FClear.6 mph87%30.21 "Hg10 mi
9:50 PM46 °FClear.6 mph87%30.21 "Hg10 mi
9:20 PM46 °FClear.7 mph87%30.21 "Hg10 mi
8:50 PM48 °FClear.7 mph82%30.21 "Hg10 mi
8:20 PM48 °FClear.7 mph87%30.21 "Hg10 mi
7:50 PM48 °FClear.7 mph82%30.21 "Hg10 mi
7:20 PM50 °FPassing clouds.8 mph82%30.21 "HgN/A
6:50 PM50 °FPassing clouds.8 mph88%30.21 "HgN/A
6:20 PM50 °FPassing clouds.9 mph88%30.18 "HgN/A
5:50 PM52 °FScattered showers. Passing clouds.10 mph82%30.18 "HgN/A
5:20 PM52 °FScattered clouds.7 mph82%30.18 "HgN/A
4:50 PM52 °FScattered clouds.9 mph82%30.18 "HgN/A
4:20 PM54 °FScattered clouds.10 mph77%30.18 "HgN/A
3:50 PM52 °FScattered showers. Broken clouds.9 mph77%30.18 "HgN/A
3:20 PM55 °FScattered showers. Partly sunny.9 mph67%30.18 "HgN/A
2:50 PM55 °FScattered clouds.10 mph63%30.18 "HgN/A
2:20 PM55 °FPartly sunny.10 mph67%30.18 "HgN/A
Weather by CustomWeather, © 2016

See weather overviewHow to use our weather pages